User: anonymous   Login
Location: Unspecified
(0.0000°N, 0.0000°E)
Time: 20:21:24
(UTC+00:00)
Language:

MUOS 2 - Orbit

View from above orbital plane
View from above orbital plane
View from above satellite
View from above satellite

Ground track
Ground track

The orbit data is extracted from the following two-line orbital elements,

1 39206U 13036A   21136.87014885  .00000073  00000-0  00000-0 0  9997
2 39206   2.5427   8.7188 0052513 176.3299 185.9829  1.00274377 28572
Epoch (UTC): 16 May 2021 20:53:00
Eccentricity: 0.0052513
inclination: 2.5427°
perigee height: 35564 km
apogee height: 36007 km
right ascension of ascending node: 8.7188°
argument of perigee: 176.3299°
revolutions per day: 1.00274377
mean anomaly at epoch: 185.9829°
orbit number at epoch: 2857

The dashed part of the orbit path shows where the satellite is in the earth's shadow,  

DLR